Voltar ao catálogo

THEA

AtivoCiênciaSSO
NORAD 43796·PAYLOAD·🇺🇸 United States

Lançado Dec 3, 2018 de Vandenberg Space Force Base

Loading…

Próximas Passagens (próximas 24 horas)

TLE

AtualizadoSource: Space-Track

Época: Sep 14, 2026, 03:58 UTC

1 43796U 18099AQ  26257.16571565  .00014040  00000-0  37929-3 0  9996
2 43796  97.4359 327.8685 0005850 336.2093  23.8881 15.37845585426352

Acompanhe THEA em tempo real com AllMySat

Download on the App Store